    Orbital elements:
    2015 WC13                                                Earth MOID = 0.2851 AU
    Epoch 2019 Apr. 27.0 TT = JDT 2458600.5                 MPC
    M 336.66507              (2000.0)            P               Q
    n   0.28725949     Peri.   39.10188     -0.45037986     -0.80120389
    a   2.2748519      Node    81.03600     +0.68590747     -0.59298199
    e   0.4681705      Incl.   23.50720     +0.57156707     +0.08027874
    P   3.43           H   19.7           G   0.15           U   1
    Residuals in seconds of arc
    130607 F51  0.0   0.1+    151208 246  0.6+  1.2-    151226 H21  0.5+  0.3+
    130607 F51  0.2-  0.5+    151208 246  0.6+  0.5-    151226 H21  0.4+  0.5+
    130607 F51  0.1+  0.1-    151208 246  0.3-  0.5-    151226 H21  0.2+  0.5+
    130607 F51  0.1+  0.1+    151208 246  0.3-  0.3-    151226 H21  0.4+  0.2+
    130701 F51  0.2+  0.0     151208 246  0.1-  0.1-    151229 703  0.0   0.7-
    130701 F51  0.2+  0.0     151209 H21  0.5-  0.4+    151229 703  0.3+  0.3+
    151109 703  1.0+  0.5+    151209 H21  0.4-  0.2+    151229 703  1.6+  0.3+
    151109 703  0.3-  0.2-    151209 H21  0.3-  0.1+    151229 926  0.1-  0.1-
    151109 703  0.0   0.5-    151209 H21  0.4-  0.3+    151229 926  0.2+  0.2-
    151109 703  0.6-  0.1-    151209 H21  0.4-  0.1+    151229 926  0.4+  0.4-
    151128 F51  0.4-  0.2+    151209 H21  0.3-  0.3+    160101 300  1.5+  0.8+
    151128 F51  0.1+  0.3-    151209 H21  0.1-  0.5+    160101 300  1.0+  0.3+
    151128 F51  0.2-  0.1-    151209 H21  0.4-  0.3+    160101 300  0.9+  0.1+
    151128 F51  0.1-  0.1-    151209 H21  0.3-  0.1+    160101 300  1.1+  1.2+
    151129 G45  0.0   0.1+    151209 H21  0.2-  0.1+    160101 300  1.0+  1.0+
    151129 G45  0.1+  0.1+    151209 H21  0.4-  0.2+    160101 300  0.7+  1.7+
    151129 G45  0.6-  0.7+    151209 H21  0.4-  0.5+    160102 F51  0.2+  0.0
    151129 G45  0.2+  0.4+    151209 H21  0.2-  0.1+    160102 F51  0.1+  0.1-
    151201 H36  0.3-  0.5-    151209 926  0.2-  0.1+    160102 F51  0.1+  0.0
    151201 H36  0.3+  0.1-    151209 926  0.1-  0.0     160102 F51  0.1-  0.0
    151201 H36  0.3+  0.3+    151209 926  0.1-  0.1+    160102 F51  0.0   0.0
    151201 H01  0.0   0.1-    151209 703  0.9+  0.4-    160102 F51  0.1+  0.2+
    151201 H01  0.0   0.0     151209 703  0.9+  0.1-    160102 F51  0.1+  0.2+
    151201 926  0.0   0.3+    151209 703  1.0-  0.4-    160102 F51  0.1+  0.1-
    151201 H01  0.0   0.0     151210 H21  0.4+  0.4-    160102 F51  0.0   0.1+
    151201 926  0.1+  0.2+    151210 H21  0.2+  0.4-    160102 F51  0.1-  0.1+
    151201 H01  0.0   0.0     151210 H21  0.2+  0.4-    160103 448  0.2+  0.0
    151201 926  0.1+  0.2+    151210 H21  0.3+  0.4-    160103 448  0.3+  0.0
    151201 958  1.2-  1.0+    151210 H21  0.4+  0.4-    160103 H21  0.0   0.6-
    151201 958  0.8-  0.0     151210 246  1.1-  1.0-    160103 H21  0.3+  0.4-
    151201 958  0.6-  0.6+    151210 246  0.4-  0.0     160103 448  0.7+  0.2+
    151201 204  0.1+  0.2+    151210 246  0.6-  0.0     160103 H21  0.0   0.2-
    151201 204  0.1-  0.2+    151210 246  0.0   0.2+    160103 H21  0.2+  0.2-
    151201 204  0.0   0.5+    151210 246  0.4+  0.4-    160103 H21  0.2+  0.2-
    151202 926  0.3-  0.6+    151210 246  0.8-  1.1-    160103 H21  0.3+  0.3+
    151202 926  0.1+  0.4-    151210 246  0.6-  0.7+    160103 H45  0.7-  0.5+
    151202 926  0.2+  0.1+    151211 H21  0.3-  0.3-    160103 H45  0.3-  0.2-
    151202 G45  0.0   0.1+    151211 H21  0.3-  0.3-    160103 H45  0.3+  0.2-
    151202 G45  0.2-  0.2-    151211 H21  0.2-  0.2-    160103 H45  0.2-  0.1-
    151202 G45  0.0   0.1+    151211 H21  0.4-  0.2-    160103 H45  0.4+  0.2-
    151202 G45  0.2-  0.0     151211 H21  0.3-  0.3-    160105 H21  0.2-  0.2-
    151202 G45  0.1+  0.3+    151211 H21  0.3-  0.3-    160105 H21  0.2-  0.0
    151202 G45  0.3-  0.4+    151211 H21  0.1-  0.1-    160105 H21  0.4-  0.5+
    151203 Q60  0.6+  0.3+    151212 705  0.7+  0.1-    160105 F51  0.1+  0.0
    151203 Q60  0.8+  0.6-    151212 705  0.2-  0.2-    160105 F51  0.1+  0.1-
    151203 Q60  0.2-  0.2+    151212 F51  0.0   0.0     160105 F51  0.1-  0.1+
    151204 703  0.9-  0.8+    151212 F51  0.0   0.0     160105 F51  0.0   0.1+
    151204 703  0.2-  0.2-    151212 157  0.3+  0.1-    160105 F51  0.0   0.1+
    151204 703  0.7+  0.1-    151212 157  0.2+  0.1+    160105 F51  0.1+  0.1+
    151204 703  0.2+  0.4+    151212 157  0.3-  0.3+    160114 G45  0.2+  0.6-
    151205 807  0.0   0.2-    151213 F51  0.0   0.1-    160114 G45  0.2-  0.0
    151205 807  0.1-  0.5-    151213 F51  0.0   0.0     160114 G45  1.0-  0.1+
    151205 807  0.0   0.3-    151213 F51  0.0   0.0     160114 G45  0.2+  0.1+
    151205 807  0.1-  0.6-    151213 F51  0.0   0.0     160114 G45  0.4-  0.2+
    151205 807  0.1-  0.4-    151214 926  0.2-  0.2-    160114 G96  0.0   0.2+
    151205 246  0.5-  0.1+    151214 926  0.2-  0.1-    160114 G96  0.1+  0.1+
    151205 246  0.2-  0.4-    151214 926  0.3+  0.4+    160114 G96  0.2+  0.0
    151205 246  1.1+  0.1+    151214 D29  1.7-  0.1-    160115 G96  0.4-  0.1+
    151205 246  0.1+  0.5-    151214 D29  1.4+  0.0     160115 G96  0.3-  0.4+
    151205 246  0.7+  0.4+    151217 H21  0.1+  0.1-    160115 G96  3.0+  0.3+
    151205 246  0.3+  0.5-    151217 H21  0.0   0.1+    160202 C51  0.5+  0.2-
    151206 807  0.1-  0.2-    151217 H21  0.2+  0.0     160202 C51  0.0   0.1+
    151206 807  0.0   0.1-    151217 H21  0.0   0.1-    160202 C51  0.1+  0.4+
    151206 807  0.2+  0.0     151217 H21  0.1-  0.0     160202 C51  0.3-  0.6-
    151206 807  0.1+  0.1-    151217 H21  0.1-  0.0     160202 C51  0.5-  0.7-
    151206 807  0.1-  0.0     151217 H21  0.2-  0.2-    160203 C51  0.0   0.2+
    151206 H21  0.3-  0.2+    151217 H21  0.0   0.1+    160203 C51  0.1+  0.2-
    151206 H21  0.1+  0.3+    151217 H21  0.2-  0.4+    160203 C51  0.3+  0.4-
    151206 H21  0.2-  0.1+    151217 G45  0.3-  0.3+    160203 C51  0.2-  0.3-
    151206 H21  0.1-  0.1+    151217 G45  0.3-  0.1+    160203 C51  0.1-  0.2-
    151206 H21  0.1+  0.2+    151217 G45  0.2-  0.0     160203 C51  0.8-  1.0-
    151206 H21  0.0   0.2+    151217 G45  0.3-  0.2+    160203 C51  0.2-  0.5-
    151206 H21  0.1+  0.3+    151217 G45  0.1-  0.1+    160203 C51  0.4+  0.8-
    151206 H21  0.1-  0.2+    151217 G45  0.1-  0.2+    160203 C51  0.4-  0.1+
    151206 H21  0.2-  0.3+    151217 G45  0.2-  0.3+    160203 C51  0.0   0.0
    151206 H21  0.1-  0.3+    151218 703  0.7-  0.6+    160203 C51  0.1+  0.2+
    151206 H21  0.1-  0.0     151218 703  0.5-  1.0-    160204 C51  0.8+  0.0
    151206 H21  0.2+  0.1-    151218 703  1.0-  0.8-    160204 C51  0.2+  0.5-
    151206 246  0.4-  0.3+    151218 703  0.9-  0.1-    160319 F51  0.3-  0.4-
    151206 246  0.8+  0.1+    151219 G96  0.2-  0.0     160319 F51  0.2+  0.1+
    151206 246  0.2-  0.2+    151219 G96  0.2-  0.1+    160410 H21  0.2-  0.3+
    151206 246  0.0   0.2+    151219 G96  0.6-  0.1+    160410 H21  0.1-  0.6+
    151206 246  0.5-  0.5+    151219 G96  0.4-  0.1+    160410 H21  0.2-  0.5+
    151206 246  0.1+  1.0-    151219 H21  0.2+  0.2+    160426 H21  0.3-  0.7+
    151206 246  0.6-  0.3-    151219 H21  0.7-  0.2-    160426 H21  0.0   0.8+
    151206 246  0.5-  0.0     151219 H21  0.5-  0.4+    160426 H21  0.0   0.7+
    151207 807  0.1-  0.4-    151220 H21  0.5+  0.0     160426 H21  0.0   0.4+
    151207 807  0.0   0.2-    151220 H21  0.3+  0.1+    160429 H21  0.4+  0.0
    151207 807  0.1-  0.1+    151220 H21  0.2+  0.0     160429 H21  0.0   0.3+
    151207 807  0.0   0.3+    151220 H21  0.1+  0.2-    160429 H21  0.4+  0.1+
    151207 807  0.2+  0.0     151220 H21  0.3+  0.0     160521 695  0.2+  0.4+
    151207 F51  0.0   0.0     151220 H21  0.2+  0.2-    160521 695  0.0   0.3+
    151207 F51  0.0   0.0     151220 H21  0.3+  0.0     160521 695  0.1+  0.5+
    151207 246  0.6-  0.6+    151226 H21  0.1+  0.0     160521 695  0.4+  0.1+
    151207 246  0.2-  0.2-    151226 H21  0.4+  0.0     160521 695  0.1+  0.4+
    151207 246  0.5+  0.1-    151226 H21  0.2+  0.2+    160521 695  0.2+  0.3+
    151207 246  1.0+  0.0     151226 H21  0.4+  0.1+    160530 F51  0.3+  0.1-
    151207 246  0.7+  0.5+    151226 H21  0.2+  0.2+    160530 F51  0.3+  0.1-
    151207 246  0.4+  0.5-    151226 H21  0.3+  0.3+    160530 F51  0.0   0.2-
    151207 246  0.7-  0.8-    151226 H21  0.4+  0.4+
    
    Ephemeris:
    2015 WC13                a,e,i = 2.27, 0.47, 24                  q = 1.2098
    Date    TT    R. A. (2000) Decl.     Delta      r     Elong.  Phase     V
    2018 12 02    23 04 05.2 -32 50 27   2.1843  2.3136    84.8    25.1    24.4
    ...
    2018 12 17    23 16 19.6 -29 04 33   2.2825  2.2335    74.6    25.1    24.4
    ...
    2018 12 25    23 24 41.6 -26 57 21   2.3300  2.1896    69.5    24.9    24.4
    ...
    2018 12 31    23 31 40.7 -25 19 15   2.3629  2.1562    65.9    24.6    24.4
    2019 01 01    23 32 53.9 -25 02 41   2.3681  2.1506    65.3    24.5    24.4
    2019 01 02    23 34 07.9 -24 46 04   2.3733  2.1450    64.7    24.5    24.4
    ...
    2019 01 08    23 41 50.6 -23 05 02   2.4026  2.1111    61.1    24.1    24.4
    ...
    2019 01 16    23 52 52.8 -20 47 07   2.4370  2.0653    56.6    23.4    24.3
    ...
    2019 01 31    00 15 37.6 -16 19 12   2.4866  1.9778    48.6    21.9    24.2
    
                           (Last issue was M.P.E.C. 2018-Y101)
    
    A. U. Tomatic                (C) Copyright 2019 MPC           M.P.E.C. 2019-A01
    

    Read MPEC 2018-Y101 Read MPEC 2019-A02


    MPEC number:

    Enter an MPEC number in one of the following forms:

    • 1997-B01 (the full form)
    • J97B01 (the packed version of the full form)
    • B01 (the abbreviated form)